METEOR 1-22

导读

METEOR 1-22是苏联(CIS,即独立国家联合体,继承苏联航天遗产)于1975年9月18日发射的流星一号系列气象卫星,属于低轨近极地轨道气象观测卫星。它搭载光学摄影、红外辐射计等探测设备,可实现昼夜云层覆盖、冰雪监测及地球辐射测量,为全球气象预报、气候研究提供数据,是苏联流星气象卫星体系的重要组成,推动了全球气象观测网络发展。

Basic Information
目录编号:
8293
目录名称:
METEOR 1-22
国际标识:
1975-087A
轨道中心:
EARTH
卫星名称:
METEOR 1-22
卫星全名:
--
卫星状态:
在轨 (已飞行18622 天)
发射日期:
1975-09-18 UTC
国别 :
俄罗斯(独联体) (CIS)
星等 :
--
This satellite is enrolled in the Space Conjunction Data Service (SCDS) and the current flight risk assessment level is: No High Risk
Orbit Information
数据来源 国际轨道数据 AOE轨道数据
星历时间 2026-09-12T07:08:47+0800
5小时前
查看轨道信息
2026-09-10T21:00:00+0800
1天前
查看轨道信息
半长轴 7227.463km 7227.465km
偏心率 0.0075936 0.0075953
轨道倾角 81.252° 81.254°
近地点辐角 80.778° 84.755°
升交点赤经 260.575° 261.966°
平近点角 280.197° 243.239°
近地点 794.443km 794.433km
远地点 904.209km 904.223km
周期 101.915分钟 101.915分钟
每日圈数 14.12941 14.129402
Detailed Information
使用方式:
暂无
2D Orbit Map
3D Orbit Map
Orbit Altitude Analysis Chart
Orbit Inclination Analysis Chart
Orbit Comprehensive Analysis Chart
View Comprehensive Chart
Conjunction Data List
Event ID Objects TCA Miss Dist (km) Collision Risk Probability Collision Risk Index (CRI) Action
CDM_260914-031200-829301-377722
IRAS (13777)
2026-09-14T
03:12:07+0000
2.229 km
极远距离
2.204383E-6 低风险 0.42
Miss Distance Evolution Trend with All Objects
Collision Probability Evolution Trend with All Objects